CAPE
84 85 97 125 298 376 362 460 480 717 842 615 502 166 32 484 912 890 1070 1002 885 791
212 114 82 161 199 292 330 379 315 480 897 662 530 650 707 890 954 1207 1046 847 755 880
262 246 198 153 255 162 140 340 292 153 341 700 760 811 542 842 827 869 775 906 1068 984
197 276 296 246 334 468 400 262 131 215 369 538 710 879 905 672 744 834 885 850 944 1080
138 280 370 302 362 572 759 337 87 268 467 550 383 672 904 901 970 541 846 884 802 696
175 293 302 445 585 619 717 566 224 177 183 106 130 310 556 711 880 807 822 508 886 750
59 1 58 157 216 306 561 765 360 228 251 177 138 51 32 399 918 923 910 747 814 884
34 3 3 2 1 19 101 311 504 472 350 261 125 142 331 516 799 1069 1147 1086 1005 1001
17 3 0 9 1 0 0 0 1 238 382 451 594 845 554 590 1083 1227 1309 1562 1469 1277
0 2 0 0 0 0 0 0 0 16 22 62 176 1 1 0 288 908 951 973 1012 967
4 4 3 0 0 0 0 0 0 0 6 84 18 1 1 1 72 270 150 224 297 389
0 0 0 2 4 0 0 0 0 0 44 0 1 0 0 2 63 36 18 59 16 13
0 0 0 0 0 0 0 0 0 5 4 0 3 0 0 0 0 0 0 0 0 1
0 0 0 0 0 0 0 0 0 0 0 0 0 0 0 0 0 0 0 0 0 0
CIN
-191 -191 -252 -230 -188 -177 -192 -160 -162 -136 -128 -145 -149 -185 -236 -154 -115 -135 -119 -131 -160 -174
-164 -197 -241 -217 -227 -196 -204 -190 -185 -168 -123 -136 -151 -130 -124 -108 -91 -85 -107 -127 -155 -148
-129 -174 -184 -206 -189 -223 -212 -175 -194 -226 -181 -126 -120 -105 -126 -104 -107 -99 -109 -98 -105 -120
-116 -116 -143 -151 -157 -151 -164 -201 -239 -209 -186 -153 -119 -95 -87 -117 -104 -91 -83 -102 -105 -93
-145 -127 -106 -138 -147 -119 -113 -177 -223 -189 -163 -151 -159 -118 -97 -92 -82 -124 -92 -86 -102 -123
-84 -77 -94 -96 -106 -101 -97 -128 -183 -206 -204 -213 -210 -170 -128 -118 -100 -107 -104 -133 -100 -117
-135 -0 -110 -142 -149 -139 -106 -89 -156 -173 -180 -221 -226 -269 -259 -138 -91 -96 -93 -116 -108 -104
-142 -76 -0 -0 -0 -49 -188 -121 -98 -116 -136 -159 -197 -156 -149 -119 -87 -72 -73 -76 -83 -91
-140 -220 -0 -242 -0 -0 -0 -0 -0 -122 -97 -92 -85 -66 -90 -93 -67 -58 -50 -44 -56 -70
-0 -146 -0 -0 -0 -0 -0 -0 -0 -149 -139 -188 -141 -0 -0 -0 -178 -84 -77 -72 -67 -64
-0 -0 -0 -0 -0 -0 -0 -0 -0 -0 -181 -145 -260 -0 -0 -0 -236 -120 -150 -130 -121 -108
-0 -0 -0 -0 -0 -0 -0 -0 -0 -0 -100 -0 -0 -0 -0 -46 -220 -23 -30 -201 -30 -31
-0 -0 -0 -0 -0 -0 -0 -0 -0 -0 -0 -0 -0 -0 -0 -0 -0 -0 -0 -0 -0 -0
-0 -0 -0 -0 -0 -0 -0 -0 -0 -0 -0 -0 -0 -0 -0 -0 -0 -0 -0 -0 -0 -0
Wind_Speed
6 4 4 4 3 3 3 3 3 4 4 4 4 3 3 1 1 1 1 1 1 1
5 6 5 5 3 2 3 3 3 3 4 3 4 4 4 3 3 2 2 1 1 1
5 5 4 3 4 3 3 3 3 3 3 3 4 4 4 2 2 2 1 2 3 2
5 4 3 4 4 4 3 4 4 4 4 5 5 4 4 4 3 3 3 2 4 4
5 5 4 5 5 4 4 2 5 4 4 4 3 3 5 4 4 4 5 4 4 4
3 2 2 3 3 4 4 4 3 4 5 4 4 4 5 5 5 4 6 5 5 4
7 5 4 4 3 3 3 4 4 5 6 6 5 4 5 5 5 5 6 6 5 5
7 7 7 7 6 7 8 6 4 3 4 4 4 5 6 6 6 6 6 5 6 6
6 7 6 7 7 7 7 8 8 9 6 5 4 7 8 6 5 6 6 6 6 6
7 6 3 6 7 7 6 6 7 6 7 6 6 10 5 3 5 5 5 5 5 7
6 5 4 5 6 5 3 5 5 5 4 5 7 10 8 6 3 2 3 3 4 5
6 7 6 6 5 3 4 3 4 3 6 9 11 18 16 10 8 6 6 6 9 9
6 6 5 3 4 3 4 3 3 9 9 11 12 19 20 13 7 8 7 5 7 8
6 6 6 7 7 7 7 8 7 10 8 11 12 12 19 17 8 6 4 5 5 4
Wind_Direction
163 163 180 200 209 228 203 203 176 189 190 194 185 196 183 209 191 137 124 233 276 330
181 168 190 221 201 218 212 209 207 200 217 207 206 192 175 179 201 166 168 174 218 280
202 199 193 201 218 208 261 256 213 200 229 230 208 208 194 186 211 219 199 208 210 222
198 218 199 222 238 223 199 206 216 211 224 223 221 205 209 212 201 220 246 219 224 237
184 201 208 220 236 241 248 224 216 216 205 198 206 221 215 228 225 208 233 242 238 240
105 152 235 258 274 259 250 226 214 213 218 222 245 232 236 229 244 240 240 233 235 248
94 89 68 47 31 304 278 254 209 216 223 212 226 232 240 235 241 244 245 252 248 249
102 94 89 72 56 58 51 29 342 275 252 245 221 236 226 220 231 242 248 255 256 244
102 92 89 84 69 59 56 53 36 28 1 314 275 269 264 248 228 237 244 258 265 263
83 79 78 100 87 67 60 55 48 35 24 11 10 339 339 270 245 237 241 262 286 294
88 96 72 65 79 80 55 65 61 19 20 47 24 354 11 359 320 329 350 322 315 307
61 75 70 63 55 45 66 62 68 41 43 70 40 16 14 29 49 42 62 46 49 35
41 54 61 75 66 36 33 26 67 85 70 51 58 22 25 17 47 37 344 40 52 53
42 52 38 54 41 38 50 58 55 66 54 68 48 30 36 26 43 28 353 351 10 17